W4TTU-1 Weather Reports


time (UTC)temp
F
wind
direction
speed
knots
gust
knots
rain 1hr
in
rain 24hr
in
rain mn
in
humidity
%
barometer
mb
20260901015644 93 270 0.0 0.0 0.00 0.00 0.00 20 846.6
20260901014143 96 270 0.0 0.9 0.00 0.00 0.00 20 846.7
20260901012642 99 270 0.9 0.9 0.00 0.00 0.00 20 846.7
20260901011142 103 270 1.7 1.7 0.00 0.00 0.00 20 846.5
20260901005641 106 270 0.9 1.7 0.00 0.00 0.00 21 846.4
20260901004141 108 270 0.9 1.7 0.00 0.00 0.00 21 846.4
20260901002640 109 270 0.9 1.7 0.00 0.00 0.00 21 846.3
20260901001140 110 270 1.7 4.3 0.00 0.00 0.00 21 846.2
20260831235639 110 270 1.7 4.3 0.00 0.00 0.00 22 846.2
20260831234139 110 270 1.7 2.6 0.00 0.00 0.00 22 846.2
20260831232638 110 270 0.9 0.9 0.00 0.00 0.00 22 846.2
20260831231138 110 270 0.0 1.7 0.00 0.00 0.00 22 846.5
20260831225637 110 270 0.0 1.7 0.00 0.00 0.00 22 846.5
20260831224137 109 270 0.9 1.7 0.00 0.00 0.00 22 846.5
20260831222636 108 270 0.9 1.7 0.00 0.00 0.00 22 846.4
20260831221136 108 270 3.5 3.5 0.00 0.00 0.00 23 846.5
20260831215635 106 270 1.7 2.6 0.00 0.00 0.00 23 846.5
20260831214135 105 270 0.9 1.7 0.00 0.00 0.00 23 846.7
20260831212634 103 270 0.9 4.3 0.00 0.00 0.00 23 846.9
20260831211134 102 270 3.5 5.2 0.00 0.00 0.00 24 846.9
20260831205633 101 270 0.9 4.3 0.00 0.00 0.00 25 847.2
20260831204133 99 270 1.7 6.1 0.00 0.00 0.00 25 847.2
20260831202632 97 270 3.5 6.1 0.00 0.00 0.00 26 847.3
20260831201131 95 270 9.6 9.6 0.00 0.00 0.00 26 847.5
20260831195631 93 270 7.8 7.8 0.00 0.00 0.00 27 847.6
20260831194130 91 270 1.7 4.3 0.00 0.00 0.00 28 847.7
20260831192630 89 270 0.9 2.6 0.00 0.00 0.00 28 847.7
20260831191129 86 270 1.7 3.5 0.00 0.00 0.00 29 847.7
20260831185629 84 270 0.9 6.1 0.00 0.00 0.00 31 847.8
20260831184128 81 270 0.0 1.7 0.00 0.00 0.00 33 848.1
20260831182628 78 270 0.9 3.5 0.00 0.00 0.00 35 848.3
20260831181127 75 270 2.6 4.3 0.00 0.00 0.00 36 848.5
20260831175627 72 270 1.7 4.3 0.00 0.00 0.00 37 848.5
20260831174126 69 270 3.5 3.5 0.00 0.00 0.00 38 848.6
20260831172626 66 270 2.6 2.6 0.00 0.00 0.00 38 848.9
20260831171125 64 270 0.9 4.3 0.00 0.00 0.00 39 849.0
20260831165625 62 270 0.9 1.7 0.00 0.00 0.00 39 849.0
20260831164124 60 270 3.5 3.5 0.00 0.00 0.00 38 849.0
20260831162624 59 270 1.7 3.5 0.00 0.00 0.00 37 849.2
20260831161123 58 270 2.6 4.3 0.00 0.00 0.00 37 849.1
20260831155623 57 270 1.7 2.6 0.00 0.00 0.00 38 849.1
20260831154122 56 270 0.9 1.7 0.00 0.00 0.00 39 849.1
20260831152621 56 270 0.0 0.9 0.00 0.00 0.00 40 849.1
20260831151121 54 270 0.9 1.7 0.00 0.00 0.00 40 849.1
20260831145620 53 270 2.6 3.5 0.00 0.00 0.00 40 849.1
20260831144120 51 270 0.9 1.7 0.00 0.00 0.00 41 849.3
20260831142619 49 270 0.0 1.7 0.00 0.00 0.00 41 849.1
20260831141119 48 270 2.6 2.6 0.00 0.00 0.00 41 849.2
20260831135618 47 270 0.9 1.7 0.00 0.00 0.00 39 849.2
20260831134121 47 270 0.9 1.7 0.00 0.00 0.00 38 849.0
20260831132617 47 270 0.0 0.0 0.00 0.00 0.00 37 848.9
20260831131117 47 270 0.0 0.0 0.00 0.00 0.00 37 848.9
20260831125616 47 270 0.0 0.0 0.00 0.00 0.00 37 848.7
20260831124116 48 270 0.0 1.7 0.00 0.00 0.00 37 848.5
20260831122615 48 270 0.9 1.7 0.00 0.00 0.00 36 848.3
20260831121115 49 270 0.0 0.0 0.00 0.00 0.00 36 848.3
20260831115614 49 270 0.0 0.9 0.00 0.00 0.00 36 848.3
20260831114114 49 270 0.0 0.9 0.00 0.00 0.00 36 848.1
20260831112613 50 270 0.9 2.6 0.00 0.00 0.00 37 847.9
20260831111113 50 270 0.0 2.6 0.00 0.00 0.00 36 847.9
20260831105612 51 270 0.9 0.9 0.00 0.00 0.00 36 847.9
20260831104111 52 270 0.0 0.0 0.00 0.00 0.00 36 848.0
20260831102611 52 270 0.0 0.9 0.00 0.00 0.00 36 848.0
20260831101110 53 270 0.0 0.0 0.00 0.00 0.00 36 847.9
20260831095610 54 270 0.9 1.7 0.00 0.00 0.00 35 847.9
20260831094109 55 270 0.0 1.7 0.00 0.00 0.00 35 847.7
20260831092609 55 270 0.9 2.6 0.00 0.00 0.00 35 847.5
20260831091108 56 270 0.0 1.7 0.00 0.00 0.00 35 847.4
20260831085608 56 270 0.0 0.9 0.00 0.00 0.00 35 847.3
20260831084107 56 270 0.0 1.7 0.00 0.00 0.00 35 847.2
20260831082607 57 270 0.9 2.6 0.00 0.00 0.00 35 847.1
20260831081106 57 270 0.0 1.7 0.00 0.00 0.00 35 847.1
20260831075606 57 270 0.0 1.7 0.00 0.00 0.00 35 847.0
20260831074105 57 270 3.5 4.3 0.00 0.00 0.00 34 846.9
20260831072605 57 270 0.9 1.7 0.00 0.00 0.00 35 846.9
20260831071104 58 270 0.0 2.6 0.00 0.00 0.00 35 846.8
20260831065604 58 270 0.0 2.6 0.00 0.00 0.00 35 846.7
20260831064103 58 270 0.0 0.9 0.00 0.00 0.00 35 846.7
20260831062603 59 270 0.0 0.9 0.00 0.00 0.00 35 846.6
20260831061102 59 270 0.0 0.9 0.00 0.00 0.00 34 846.6
20260831055601 60 270 0.9 0.9 0.00 0.00 0.00 35 846.6
20260831054101 61 270 0.0 0.0 0.00 0.00 0.00 35 846.7
20260831052600 61 270 0.9 0.9 0.00 0.00 0.00 34 846.4
20260831051100 62 270 0.9 2.6 0.00 0.00 0.00 34 846.4
20260831045559 63 270 0.9 1.7 0.00 0.00 0.00 34 846.5
20260831044059 64 270 0.9 2.6 0.00 0.00 0.00 34 846.4
20260831042558 65 270 0.9 0.9 0.00 0.00 0.00 35 846.5
20260831041058 67 270 0.9 1.7 0.00 0.00 0.00 34 846.5
20260831035557 68 270 0.0 0.9 0.00 0.00 0.00 34 846.6
20260831034057 70 270 0.0 0.0 0.00 0.00 0.00 34 846.5
20260831032556 72 270 0.0 0.0 0.00 0.00 0.00 34 846.5
20260831031056 74 270 0.0 0.0 0.00 0.00 0.00 33 846.3
20260831025556 77 270 0.0 1.7 0.00 0.00 0.00 32 846.0
20260831024055 79 270 0.0 0.0 0.00 0.00 0.00 31 845.8
20260831022554 82 270 0.0 0.0 0.00 0.00 0.00 31 845.5
20260831021054 85 270 0.0 1.7 0.00 0.00 0.00 30 845.4